Retour au catalogue

STARLINK-4504

ActifCommunicationsVLEO
NORAD 53555·PAYLOAD·🇺🇸 United States

Lancé Aug 19, 2022 depuis Cape Canaveral Space Force Station

Loading…

Prochains Passages (prochaines 24 heures)

TLE

FraisSource: CelesTrak SupGP

Époque: Sep 14, 2026, 21:44 UTC

1 53555C 22101AE  26257.90604167  .00025613  00000+0  16065-2 0  2577
2 53555  53.1593 294.0677 0001170  83.6118 211.7854 15.08814530    16

Suivez STARLINK-4504 en temps réel avec AllMySat

Download on the App Store